N2XP Weather Reports


Display with metric or nautical units.
time (UTC)temp
F
wind
direction
speed
MPH
gust
MPH
rain 1hr
in
rain 24hr
in
rain mn
in
humidity
%
barometer
mb
20260503231516 56 176 0.0 4.0 0.00 0.00 0.00 39 1009.1
20260503230009 57 200 1.0 6.0 0.00 0.00 0.00 36 1009.0
20260503224508 57 230 0.0 4.0 0.00 0.00 0.00 36 1008.9
20260503223007 57 251 0.0 5.0 0.00 0.00 0.00 34 1008.7
20260503221505 57 269 0.0 8.0 0.00 0.00 0.00 35 1008.8
20260503220006 58 200 0.0 10.0 0.00 0.00 0.00 33 1008.7
20260503214502 58 310 0.0 8.0 0.00 0.00 0.00 34 1008.8
20260503213123 58 134 0.0 9.0 0.00 0.00 0.00 35 1008.6
20260503211618 58 119 0.0 11.0 0.00 0.00 0.00 36 1008.7
20260503210053 59 205 0.0 7.0 0.00 0.00 0.00 33 1008.7
20260503204603 58 324 1.0 12.0 0.00 0.00 0.00 32 1008.7
20260503203049 58 178 1.0 13.0 0.00 0.00 0.00 32 1008.9
20260503201549 57 150 1.0 15.0 0.00 0.00 0.00 35 1009.0
20260503200048 58 360 0.0 8.0 0.00 0.00 0.00 37 1009.2
20260503194544 57 13 1.0 13.0 0.00 0.00 0.00 36 1009.2
20260503193045 56 266 3.0 13.0 0.00 0.00 0.00 34 1009.4
20260503191557 57 312 1.0 10.0 0.00 0.00 0.00 35 1009.3
20260503190045 57 360 5.0 15.0 0.00 0.00 0.00 35 1009.3
20260503184546 56 219 4.0 14.0 0.00 0.00 0.00 35 1009.4
20260503183044 56 148 1.0 16.0 0.00 0.00 0.00 37 1009.7
20260503181537 55 345 5.0 18.0 0.00 0.00 0.00 38 1009.7
20260503180036 55 206 2.0 13.0 0.00 0.00 0.00 42 1009.8
20260503174541 54 240 1.0 10.0 0.00 0.00 0.00 39 1010.0
20260503173031 54 23 3.0 13.0 0.00 0.00 0.00 43 1010.1
20260503171533 52 200 2.0 19.0 0.00 0.00 0.00 43 1010.2
20260503081527 42 5 2.0 9.0 0.00 0.01 0.00 62 1009.2
20260503071516 43 143 0.0 1.0 0.00 0.01 0.00 66 1008.8
20260503054530 45 56 1.0 4.0 0.00 0.01 0.00 59 1009.0
20260503053017 45 19 0.0 3.0 0.00 0.01 0.00 58 1009.1
20260503051513 46 266 0.0 6.0 0.00 0.01 0.00 57 1009.4
20260503050011 46 126 0.0 4.0 0.00 0.01 0.00 57 1009.4
20260503044508 46 347 2.0 9.0 0.00 0.01 0.00 55 1009.5
20260503043006 46 35 0.0 3.0 0.00 0.01 0.00 55 1009.6
20260503041505 46 31 0.0 4.0 0.00 0.01 0.00 54 1009.7
20260503040007 47 185 0.0 4.0 0.00 0.01 0.00 55 1009.8
20260503034600 47 69 1.0 5.0 0.00 0.01 0.00 54 1009.8
20260503033101 47 331 0.0 8.0 0.00 0.01 0.01 53 1009.8
20260503031558 47 5 0.0 0.0 0.00 0.01 0.01 56 1009.9
20260503030056 47 46 0.0 0.0 0.00 0.01 0.01 59 1009.9
20260503024556 47 46 0.0 1.0 0.00 0.01 0.01 56 1010.0
20260503023054 48 36 0.0 0.0 0.00 0.01 0.01 55 1009.9
20260503021554 48 295 0.0 0.0 0.00 0.01 0.01 53 1009.8
20260503020053 49 294 0.0 0.0 0.00 0.01 0.01 52 1009.9
20260503014605 49 286 0.0 1.0 0.00 0.01 0.01 54 1009.9
20260503013052 49 286 0.0 1.0 0.00 0.01 0.01 49 1009.9
20260503011611 49 171 0.0 2.0 0.00 0.01 0.01 48 1009.8
20260503010052 50 42 0.0 2.0 0.00 0.01 0.01 49 1009.7
20260503004550 50 42 0.0 1.0 0.00 0.01 0.01 49 1009.4
20260503003051 51 42 0.0 2.0 0.00 0.01 0.01 50 1009.3
20260503001549 51 42 0.0 0.0 0.00 0.01 0.01 51 1009.1
20260503000048 51 42 0.0 0.0 0.00 0.01 0.01 49 1009.0
20260502234608 51 42 0.0 0.0 0.00 0.01 0.01 49 1009.0
20260502233047 52 42 0.0 0.0 0.00 0.01 0.01 48 1009.0